Location: Drocourt
(49.0571°N, 1.7669°E)
Time: 15:54:08
(UTC+00:00)

Vanguard 3 - Pass Details

Date: 13 April 2024
Orbit: 509 x 3233 km, 33.3° (Epoch: 23 May)

Event Time Altitude Azimuth Distance (km) Brightness Sun altitude
Rises 07:55:53 0° 238° (WSW) 4,001 10.4 26.8°
Reaches altitude 10° 08:00:34 10° 214° (SW) 2,513 9.6 27.5°
Maximum altitude 08:03:14 13° 186° (S) 2,014 9.5 28.0°
Drops below altitude 10° 08:05:29 10° 156° (SSE) 2,045 10.0 28.3°
Sets 08:08:34 0° 127° (SE) 2,734 11.0 28.8°
